RH
44 45 46 46 48 48 48 48 47 46 44 41 37 32 27 24 20 16 14 12 10 9 8 8 8 7 7 7 7 7 7 7 8 8 8 8 8 8 8 8 9 9 9 10 11 12 11 11 11 12 13 12 12 12 12 13 12 12 13 12 12 13 12 14 14 10 10 13 13 14 16 15 14 15 15 14 14 15 13 13 14 13 13 13 12
50 52 53 54 55 54 53 50 47 45 40 34 30 27 21 17 15 12 11 10 9 9 8 8 8 8 8 8 8 8 7 8 8 8 9 8 9 9 9 9 9 10 11 11 12 12 11 12 12 12 14 13 13 13 13 13 13 13 14 13 12 14 13 13 14 13 11 12 14 15 17 17 15 16 17 17 17 17 17 16 16 16 15 15 15
55 56 57 56 54 51 48 44 40 37 33 28 25 23 17 14 13 11 10 9 8 9 8 8 8 8 8 8 8 8 8 9 9 9 9 9 9 10 9 10 10 10 12 12 12 13 12 12 12 12 14 14 14 14 14 14 14 13 14 14 13 13 14 15 15 16 14 13 15 17 17 18 17 17 19 19 20 21 21 21 21 23 22 21 22
58 58 57 54 50 46 41 37 35 32 28 24 22 20 15 13 12 10 9 9 8 8 8 8 9 9 9 9 9 10 9 10 10 10 10 10 10 10 10 11 11 12 13 13 12 12 12 12 13 13 14 14 14 14 14 15 14 14 14 14 15 15 16 17 17 18 17 16 17 18 20 21 20 20 21 21 22 24 25 26 26 29 32 34 34
58 56 52 48 46 44 38 34 32 29 24 22 19 17 13 11 11 9 9 9 8 9 9 9 10 10 10 11 11 11 11 11 11 11 11 11 11 11 11 12 13 14 13 13 13 12 13 13 13 14 14 14 15 15 15 16 15 16 16 16 17 17 18 19 19 20 20 19 19 20 21 23 22 23 26 26 25 25 26 30 32 35 37 40 43
53 50 47 44 42 42 38 33 31 27 23 21 17 14 11 10 10 9 9 9 9 10 10 10 11 11 11 12 12 12 12 12 12 12 12 13 12 12 12 13 15 15 14 14 13 14 14 14 15 15 15 16 17 16 17 17 16 17 18 18 19 19 19 21 21 22 23 23 23 22 22 24 24 25 30 32 34 35 34 31 31 37 39 39 43
50 48 47 45 43 41 37 33 29 25 22 19 15 12 10 10 9 10 10 10 10 11 11 11 12 12 12 13 13 13 13 13 14 14 14 13 13 13 14 15 16 16 15 15 15 15 16 16 16 17 17 17 18 18 19 18 19 20 20 20 21 21 21 22 23 25 25 24 25 24 24 26 29 32 35 37 39 45 50 43 32 35 43 47 51
51 49 48 47 45 40 35 30 27 23 19 16 13 11 10 9 10 10 10 11 11 11 11 12 12 12 13 13 14 15 15 14 15 15 15 14 14 14 14 16 19 19 17 17 17 17 18 18 18 19 19 19 20 20 21 21 21 22 23 22 22 23 24 25 27 28 28 27 26 27 26 28 35 38 38 42 45 48 62 67 53 47 52 58 64
53 51 49 48 43 37 32 28 24 20 16 14 12 11 10 10 10 11 11 11 11 11 12 12 12 14 14 15 16 16 16 17 17 17 17 16 15 15 17 20 21 22 21 19 20 19 19 20 20 20 21 21 22 22 22 24 24 23 24 24 24 26 27 31 33 32 31 30 28 29 30 33 44 49 47 56 67 67 71 76 69 64 64 62 70
55 52 49 45 39 33 29 25 21 18 15 13 11 11 10 11 11 11 12 12 12 13 13 13 14 15 15 17 17 17 19 18 19 21 19 19 20 19 21 25 23 22 23 21 21 22 21 22 22 22 23 23 24 25 25 26 26 25 26 26 28 32 36 39 39 37 38 37 34 34 38 43 54 62 63 69 78 79 77 79 78 78 79 74 74
56 52 48 42 35 30 26 22 19 16 14 12 11 11 11 12 12 12 13 13 13 14 14 15 16 16 17 18 17 19 21 18 32 48 38 25 28 27 24 27 25 22 24 23 22 24 23 24 24 24 25 26 25 26 27 27 27 27 27 30 35 42 48 47 44 45 47 44 39 40 46 54 59 64 72 78 79 80 82 86 90 90 93 94 85
56 51 46 40 33 28 24 20 16 14 12 12 11 12 12 13 13 13 14 14 14 15 15 16 17 16 18 19 17 21 21 17 44 82 71 37 29 30 25 27 27 25 25 24 23 25 25 25 27 27 27 28 28 28 29 29 29 29 30 35 41 45 49 53 56 58 55 47 43 43 50 60 63 64 75 85 85 86 88 91 98 98 97 100 95
56 50 46 40 32 25 20 16 14 12 12 12 12 13 13 14 14 14 15 15 15 16 16 16 17 17 18 19 18 21 23 19 36 80 94 59 30 25 27 29 30 27 26 25 25 26 26 27 29 30 30 30 29 30 31 31 31 33 36 39 42 43 47 54 58 57 52 49 50 50 53 64 70 71 82 91 92 94 97 98 101 99 94 96 97
56 51 45 38 29 21 16 14 13 13 13 13 13 14 14 14 15 15 15 16 16 16 18 17 17 19 17 20 21 19 24 24 24 57 92 73 33 23 30 32 30 28 27 27 27 27 29 29 31 32 33 33 33 33 34 35 35 37 38 39 41 45 50 52 49 47 48 52 54 55 61 75 84 84 87 90 90 91 95 98 97 94 93 94 91
58 50 42 33 24 18 14 13 13 13 14 14 14 15 15 15 16 17 16 17 17 17 19 17 17 20 18 19 23 20 23 27 22 40 71 61 31 28 35 32 30 30 28 29 29 30 31 31 33 35 35 35 36 37 38 38 38 38 39 42 47 50 50 48 45 47 51 55 59 64 73 84 89 88 85 82 79 80 86 90 85 79 76 73 64
57 45 35 28 20 16 14 14 14 14 15 16 15 15 16 16 16 18 17 18 18 17 19 19 18 20 20 20 23 22 23 26 24 35 52 42 24 27 34 32 32 32 30 31 32 32 33 33 34 36 36 37 38 40 42 45 50 53 51 51 51 48 45 45 46 51 55 58 63 68 71 76 83 86 84 76 68 67 69 67 60 54 51 47 44
51 38 29 23 17 15 15 14 15 16 16 16 16 16 17 17 17 18 18 18 19 18 19 20 20 20 21 22 23 23 25 26 25 33 42 33 21 25 31 31 33 33 32 34 34 33 35 34 34 36 37 39 40 42 46 55 66 68 60 53 50 45 42 43 45 50 52 52 56 57 56 61 69 71 68 62 57 56 56 52 49 49 48 47 47
43 33 25 20 16 15 16 16 16 17 16 17 17 17 18 18 18 19 19 18 19 20 19 21 22 22 23 24 25 25 26 28 27 31 35 29 22 26 29 31 33 34 34 36 36 37 38 36 36 38 38 40 43 44 51 68 77 69 59 56 52 45 43 43 44 46 46 46 49 53 53 55 57 56 55 55 56 57 58 58 59 60 61 63 64
34 27 21 18 16 16 17 17 17 17 17 17 18 18 18 19 19 19 20 20 20 21 21 22 23 24 25 25 27 27 28 29 29 31 34 31 25 25 28 31 34 35 36 38 38 40 41 39 39 41 39 43 46 44 58 85 89 71 62 63 55 47 46 46 46 46 46 46 49 51 53 55 55 56 56 57 58 60 62 64 66 69 70 71 73
27 22 18 17 17 17 17 18 17 18 19 18 19 19 19 19 20 20 20 21 22 22 23 24 25 26 27 27 28 29 29 30 31 32 35 35 30 27 29 32 35 36 38 39 39 41 43 43 44 44 43 47 48 46 66 94 89 65 62 65 57 51 50 49 52 54 52 53 54 54 56 57 57 58 59 59 61 63 65 67 69 73 76 75 75
23 19 18 17 18 17 17 18 19 19 20 20 19 20 20 20 21 21 21 22 24 24 25 26 27 27 28 28 30 30 30 31 32 33 36 38 36 33 32 34 37 38 39 40 40 41 43 44 46 47 47 49 49 51 66 80 69 56 60 64 59 57 58 56 58 59 58 58 59 58 60 61 61 62 63 63 65 65 66 69 71 74 77 78 79
21 19 19 18 18 19 19 19 20 20 20 21 20 20 21 21 21 23 23 24 25 26 27 28 28 28 29 30 31 32 32 33 34 35 36 39 40 39 37 37 39 40 40 42 43 44 45 46 47 48 49 50 51 52 56 58 55 55 62 63 61 62 63 62 62 60 60 61 61 61 63 63 62 64 64 65 67 69 69 70 72 74 77 79 83
20 19 20 19 19 20 20 20 21 21 21 21 21 21 21 22 23 24 25 26 27 28 28 29 29 30 31 33 33 34 35 36 37 38 39 40 42 43 42 41 42 43 43 44 45 46 47 48 48 49 50 51 52 54 56 56 57 60 62 62 63 64 63 63 63 62 62 63 62 62 64 65 66 66 68 69 70 71 73 72 72 75 76 77 80
20 20 20 20 20 21 21 21 22 22 22 21 22 22 23 24 25 26 27 28 28 28 29 30 31 32 34 35 36 37 39 40 40 42 43 43 45 46 46 47 47 47 47 47 47 48 50 51 51 51 51 52 54 57 59 60 61 62 64 64 65 64 64 64 64 64 64 64 65 65 66 68 71 72 73 74 74 75 76 75 74 76 78 77 77
20 21 21 21 22 22 22 22 22 22 23 22 23 24 25 26 28 28 29 29 29 30 31 32 34 35 37 39 40 41 42 43 44 44 45 46 47 48 49 50 50 50 50 49 50 51 52 53 53 53 54 55 56 58 59 61 63 65 67 68 67 67 68 67 66 67 66 66 67 68 69 72 75 77 78 77 77 79 79 76 73 75 75 74 72
21 22 22 22 23 23 23 23 23 23 24 24 25 27 28 29 29 29 30 31 31 33 34 35 37 39 40 42 44 45 45 46 46 47 47 47 48 49 49 50 51 52 52 52 52 53 55 57 57 57 58 58 58 58 58 60 64 67 70 72 72 72 72 71 70 70 69 70 71 72 73 76 77 79 80 79 79 81 81 78 75 74 74 72 68
23 23 23 23 23 23 23 23 24 24 25 26 28 29 30 30 30 31 32 33 34 36 37 39 41 43 44 46 47 48 49 49 49 50 50 49 49 49 50 51 53 54 55 55 55 55 57 59 60 60 60 60 61 62 62 63 65 69 72 74 75 76 76 76 76 76 75 75 76 75 76 79 80 80 80 80 81 83 83 81 79 76 76 75 71
23 24 24 24 24 24 24 25 25 26 28 29 30 31 31 31 32 33 35 36 38 40 42 44 45 46 47 48 49 51 52 51 51 51 52 52 51 51 52 53 54 55 55 55 56 57 58 60 61 61 62 62 63 66 67 67 68 70 73 75 76 78 79 79 80 80 81 80 79 78 79 80 81 82 82 81 82 83 84 84 82 80 80 80 76
24 24 24 24 24 25 25 26 27 29 30 31 32 32 32 33 35 37 38 40 42 45 46 47 48 49 50 51 50 52 54 54 54 52 52 52 52 52 53 53 53 54 56 55 55 57 58 60 62 64 64 64 64 66 67 67 69 71 74 76 77 79 81 82 81 81 81 81 81 81 82 82 83 84 85 83 83 84 85 85 85 83 83 83 81
24 24 24 24 25 26 27 28 30 31 32 33 33 33 34 36 38 40 42 43 46 48 49 50 51 51 53 54 53 52 54 55 54 53 52 52 52 52 54 54 55 56 58 58 58 59 61 62 64 66 68 67 66 68 68 67 67 69 71 75 78 80 82 84 84 83 82 82 82 83 85 86 86 87 87 85 84 84 86 87 87 87 86 85 83
25 25 25 25 26 27 29 31 32 33 33 34 34 35 37 39 41 43 45 46 47 49 50 52 53 53 54 56 56 55 56 55 54 53 51 49 50 51 53 55 58 60 61 61 60 61 64 64 64 67 70 70 70 71 72 70 70 70 70 72 77 82 84 85 85 85 84 83 84 85 86 88 88 89 90 89 87 86 87 88 88 88 88 88 86
26 26 26 28 29 30 32 33 33 34 34 34 36 38 39 42 44 45 46 48 50 52 54 55 56 57 57 57 57 56 56 56 56 54 51 48 46 47 49 53 57 61 63 63 62 64 67 66 65 67 71 72 72 74 74 73 74 75 74 73 74 79 85 87 87 87 87 86 85 85 86 89 91 91 92 92 90 88 87 88 89 89 90 89 89
27 27 28 29 30 32 33 34 34 34 35 36 38 40 42 44 46 46 48 50 52 54 57 58 59 60 60 61 60 59 58 57 57 57 56 52 48 46 45 48 54 60 64 66 65 65 68 67 67 69 72 72 73 74 74 75 77 78 79 78 77 78 83 87 89 89 89 88 87 87 87 89 92 93 93 93 92 91 88 88 89 90 91 90 89
28 29 30 31 33 33 34 34 34 35 37 39 41 43 45 48 49 50 53 55 57 59 61 62 62 61 61 62 63 60 58 57 58 59 60 58 55 50 46 46 51 58 64 67 67 67 68 68 68 71 73 74 74 74 74 76 79 81 82 82 81 81 84 87 90 90 90 90 90 88 88 90 93 95 94 93 92 91 89 89 90 91 93 92 90
30 30 31 33 34 34 34 35 35 37 39 41 44 47 49 50 52 54 56 58 62 65 67 69 69 67 65 66 66 62 58 56 56 58 60 61 59 55 49 46 50 57 63 68 70 71 71 71 71 73 75 75 75 76 76 78 81 84 85 84 83 83 84 87 89 91 93 93 91 89 89 90 94 97 96 95 94 92 89 89 91 93 95 95 94
31 32 33 34 34 35 35 36 37 40 42 44 47 49 51 52 55 57 59 60 62 63 65 68 69 69 69 68 64 59 56 53 51 52 56 59 60 57 52 49 49 54 60 66 70 72 73 73 74 76 77 77 77 78 79 80 83 86 88 87 86 85 86 87 89 91 94 95 93 91 90 91 94 97 96 95 95 94 91 91 93 96 98 99 98
33 33 34 35 35 35 36 38 41 43 45 47 49 51 53 56 58 60 61 62 61 58 56 54 53 54 59 62 57 50 47 47 46 47 52 56 58 57 54 51 49 51 57 63 68 71 72 74 77 78 78 79 79 80 81 83 85 87 89 89 89 88 88 89 90 91 94 95 94 92 92 92 94 97 97 95 95 94 92 93 96 97 99 100 100
34 34 34 35 36 37 39 41 43 45 47 50 52 54 56 59 61 62 62 59 55 49 43 38 36 36 40 45 45 41 38 39 40 44 49 53 56 56 55 52 50 51 55 62 68 71 72 74 78 80 80 80 81 81 83 85 87 89 89 89 88 88 88 89 90 92 93 95 94 93 92 92 94 95 96 97 98 96 94 94 97 99 99 100 101
34 34 35 36 37 39 41 43 45 47 50 52 54 56 60 62 63 61 56 48 41 36 32 30 31 31 32 34 35 34 34 34 35 38 43 47 51 54 54 53 52 52 55 60 67 71 73 75 77 80 81 81 82 84 86 87 89 90 91 89 86 85 86 87 88 90 91 93 94 94 93 92 93 94 95 97 99 99 96 95 98 102 101 100 100
35 35 36 38 39 41 44 45 47 50 52 54 58 61 62 61 56 49 41 34 31 30 29 29 30 32 33 33 33 32 31 31 31 34 36 39 44 47 49 50 51 52 54 58 64 70 74 76 77 79 81 82 83 85 86 88 89 90 90 88 85 83 82 84 85 87 88 90 92 93 94 93 93 93 94 96 99 100 99 97 99 102 102 100 99
35 36 38 40 41 43 45 47 50 53 55 59 62 61 56 49 41 34 30 29 29 31 34 36 40 45 48 49 50 49 46 43 41 38 36 35 37 40 44 46 48 48 50 54 60 67 72 75 77 79 80 82 84 85 85 87 88 88 88 86 83 80 78 79 81 82 84 87 89 91 93 94 94 93 93 94 97 99 100 100 101 101 100 100 99
37 39 40 42 43 46 48 52 55 58 60 60 57 49 42 35 31 29 32 37 42 49 56 61 66 71 74 77 79 79 77 74 71 65 57 50 43 39 39 42 45 46 48 50 54 61 68 73 76 79 80 81 83 83 83 83 83 83 83 82 79 77 75 74 75 77 79 81 84 88 90 92 94 94 93 94 96 98 98 100 102 102 101 100 100
39 41 43 45 47 50 53 57 59 59 57 50 42 35 31 32 37 44 52 60 68 74 77 78 80 82 84 88 92 93 92 92 92 89 85 79 70 60 52 47 44 43 45 47 49 54 59 65 71 75 77 79 79 79 78 77 76 76 76 75 74 73 71 70 70 72 74 76 79 82 86 89 91 92 92 94 95 96 97 99 101 102 102 101 100
42 44 46 49 52 55 59 60 57 51 43 35 32 35 42 51 61 70 75 78 81 83 82 82 82 81 81 85 90 93 93 94 95 95 94 94 91 87 80 71 60 49 43 43 46 48 51 55 60 64 68 70 71 71 71 70 70 69 69 69 69 68 66 65 66 67 69 71 73 76 80 84 87 88 89 91 93 95 96 98 100 101 101 100 98
46 48 51 55 57 59 58 52 42 36 35 39 47 58 67 74 79 81 81 81 81 80 80 79 79 78 77 78 82 86 88 90 92 93 94 94 94 94 95 94 87 73 58 49 46 46 46 48 51 54 57 59 61 62 63 64 64 64 64 63 63 63 62 62 62 63 64 66 67 70 73 77 80 82 83 84 86 89 92 95 98 100 100 100 99
51 54 57 58 55 49 42 35 35 41 51 62 70 76 79 80 80 79 77 76 75 73 71 69 69 70 70 70 72 74 76 79 81 84 88 91 93 94 95 97 98 94 86 74 63 54 48 46 46 48 50 52 53 55 57 57 58 58 58 58 58 57 57 58 58 59 60 61 61 63 66 68 71 73 72 72 74 78 82 87 93 97 100 102 101
56 58 55 48 40 35 34 41 53 64 72 76 77 76 74 74 72 69 67 66 64 63 62 62 64 66 68 69 71 72 72 73 73 74 77 81 86 91 95 96 96 96 96 93 87 77 68 60 54 50 48 47 47 48 50 50 51 51 51 51 51 51 52 53 54 55 56 56 56 57 59 61 62 63 63 63 65 69 74 81 88 94 100 102 100
55 49 40 34 34 41 53 64 73 76 76 76 73 69 65 62 60 57 56 57 59 61 64 68 72 74 75 76 77 78 79 79 78 77 77 77 77 80 87 92 95 96 94 94 94 93 89 83 77 70 62 56 52 48 47 46 47 47 47 47 47 47 46 47 49 50 51 53 53 53 54 55 56 57 58 59 64 70 76 83 89 95 100 100 98
41 34 33 39 51 64 73 76 76 74 72 69 63 57 54 52 50 51 55 60 64 69 73 75 76 77 76 77 77 79 80 80 79 79 81 82 81 80 80 81 87 93 94 93 92 93 94 94 93 90 86 80 74 68 63 60 59 59 58 57 56 54 52 52 52 52 54 55 55 56 56 56 58 60 61 65 72 79 85 91 96 100 102 100 97
31 36 48 61 70 76 76 74 69 65 62 57 51 47 46 47 49 55 62 66 69 72 74 75 75 77 80 82 84 85 86 84 82 79 77 78 82 85 85 81 79 82 87 91 93 92 92 92 93 93 93 93 91 89 86 84 83 83 83 82 80 78 77 76 75 74 74 74 73 73 72 71 71 73 76 80 86 91 94 97 100 102 102 101 100
44 57 68 74 75 74 71 65 59 55 52 49 45 44 45 49 54 60 64 67 69 71 72 74 78 81 85 88 90 91 92 93 92 88 80 74 73 76 81 84 83 80 79 83 88 91 92 92 91 91 91 92 91 92 92 92 92 93 94 94 94 93 94 95 94 93 94 95 93 91 90 89 88 89 91 93 96 97 97 98 99 99 100 100 99
Wind_Speed
24 23 21 20 18 17 15 14 12 10 9 8 6 5 4 2 1 1 1 2 3 3 4 5 5 6 7 7 8 8 9 9 9 9 10 10 10 10 11 11 11 11 12 13 13 13 13 14 15 15 15 16 16 17 17 17 19 19 19 21 21 20 23 26 31 36 36 34 35 37 37 37 36 35 36 37 36 35 35 35 35 35 36 36 36
23 21 20 18 16 15 13 12 10 9 7 6 4 3 2 1 0 1 2 3 3 4 5 6 6 6 7 8 9 9 10 10 10 10 10 10 10 10 11 12 12 12 12 13 14 14 15 15 16 16 16 17 18 18 18 18 19 19 18 20 22 21 22 25 28 33 36 34 34 36 36 36 36 35 35 36 36 35 35 34 33 33 33 34 35
22 20 18 17 15 13 12 10 9 7 5 4 2 1 0 1 2 2 3 4 4 5 6 6 6 7 7 8 9 9 10 10 9 10 10 10 11 12 12 13 13 14 14 14 14 15 16 16 17 16 16 17 18 18 19 19 20 20 19 20 22 22 22 24 26 29 34 34 33 35 36 35 35 34 34 35 35 34 34 33 32 32 31 31 32
20 18 17 15 13 12 10 8 7 5 4 2 0 0 1 2 3 4 4 4 5 5 6 6 6 7 7 8 8 9 10 9 9 10 10 11 12 13 13 13 14 14 14 14 14 14 15 16 16 17 17 17 17 18 18 19 20 20 20 21 21 22 22 22 24 26 30 33 33 33 34 34 34 33 33 33 33 32 32 32 32 31 30 30 31
19 17 15 13 11 10 8 6 5 3 2 1 1 2 2 3 4 4 5 5 5 5 5 5 5 6 6 7 8 9 10 10 10 11 11 11 12 13 13 13 13 13 13 13 13 14 14 15 16 16 17 17 17 18 18 18 19 20 20 20 21 21 22 22 24 25 27 31 32 31 31 32 32 31 30 32 33 32 31 31 31 31 31 30 30
18 16 14 12 9 8 6 4 3 2 1 1 2 3 3 4 4 5 5 5 6 5 5 5 5 5 6 7 8 9 11 11 11 11 11 11 11 12 13 12 12 11 12 12 13 14 14 15 15 16 16 17 17 17 17 18 19 19 20 20 20 22 22 22 24 24 25 28 29 30 30 30 31 30 27 28 31 33 33 34 32 30 31 33 33
16 14 12 10 8 6 5 4 3 2 2 2 3 4 4 4 5 5 6 6 5 5 5 5 5 6 6 7 8 9 11 11 11 10 10 10 11 12 12 10 10 10 11 12 13 14 14 14 15 15 16 17 17 17 17 18 18 18 19 20 20 21 22 22 23 23 25 26 27 28 29 29 29 29 27 26 27 30 32 36 38 36 35 35 36
15 13 11 9 7 6 4 3 3 3 3 3 4 4 4 5 5 5 6 6 6 6 6 6 6 6 7 7 7 8 10 11 11 10 10 11 11 12 10 9 9 10 11 12 13 14 14 14 14 15 16 16 16 16 17 18 19 17 18 20 20 21 21 21 22 23 24 26 26 27 28 28 27 28 27 26 29 31 31 34 40 41 40 39 38
14 12 10 8 6 5 4 3 3 4 4 4 5 5 5 5 5 6 6 6 7 6 6 6 6 6 6 6 6 7 9 11 10 10 10 10 11 11 10 10 10 10 12 12 13 13 13 14 14 15 15 15 16 16 17 17 18 18 18 18 19 20 21 22 22 23 25 26 26 27 28 28 27 28 29 28 30 33 34 35 38 41 42 43 38
13 11 9 7 5 4 3 3 4 5 5 6 6 6 6 6 6 6 6 6 6 6 6 6 5 5 5 5 5 5 7 9 10 11 10 10 12 12 10 10 11 11 12 12 12 13 13 14 14 15 15 15 15 16 17 16 17 18 18 18 19 20 22 22 22 23 25 27 28 28 29 29 27 28 29 29 29 32 35 37 39 41 42 42 39
12 9 8 6 5 4 4 4 5 6 6 7 7 6 6 6 6 6 6 7 6 6 6 6 5 5 4 4 4 4 5 7 7 10 13 13 13 12 11 11 12 12 12 12 12 12 13 14 14 14 15 15 15 16 16 16 16 17 17 17 18 18 20 21 23 24 26 28 28 28 28 29 28 27 28 30 32 34 36 37 39 39 37 37 41
11 9 7 6 5 5 5 6 6 7 7 7 7 7 7 6 6 6 6 7 6 6 6 5 5 4 4 4 4 3 4 4 2 4 13 17 14 12 12 12 13 13 13 13 12 11 12 13 14 15 15 15 15 15 15 15 16 16 17 17 16 15 16 19 22 25 26 28 28 26 25 27 28 27 28 32 35 37 39 38 35 34 34 36 42
10 9 7 6 6 6 6 7 7 8 8 8 8 7 7 6 6 6 6 6 6 5 5 5 5 4 4 4 4 2 3 4 3 4 7 17 15 13 13 13 13 13 13 12 12 11 11 11 12 14 15 15 15 15 14 15 15 16 17 15 14 14 16 18 19 22 24 25 26 25 22 24 28 29 30 33 37 39 39 36 33 33 38 41 44
10 9 7 7 7 7 7 8 8 9 9 8 8 7 7 6 6 6 6 6 6 5 5 5 4 4 4 3 3 3 2 4 5 7 2 13 17 15 13 11 12 13 12 12 12 11 10 10 10 12 14 14 14 14 14 15 16 17 16 14 15 16 18 18 18 19 20 21 23 23 22 24 28 31 32 33 36 36 34 34 36 39 42 44 45
9 8 8 7 7 8 8 8 9 9 9 8 8 7 7 6 5 5 5 5 6 5 4 5 4 4 4 2 3 4 3 4 6 7 7 14 18 15 12 10 10 11 11 12 12 11 11 11 11 11 12 14 14 14 14 16 18 18 17 17 18 17 17 18 19 19 19 20 21 23 23 24 27 30 32 32 32 32 32 34 38 41 44 46 47
9 9 8 8 8 9 9 9 9 9 9 8 8 7 6 6 5 5 5 5 5 5 4 5 5 4 4 3 3 4 4 5 7 7 9 14 16 13 11 9 8 10 11 11 12 12 11 11 11 11 12 13 14 14 14 17 19 20 20 19 19 18 17 18 18 19 19 20 19 20 20 20 22 24 25 26 28 30 33 35 36 37 41 44 45
10 9 9 9 9 9 9 9 9 9 8 8 7 7 6 6 5 4 4 4 4 5 4 4 4 4 4 3 4 4 4 5 7 8 10 14 14 12 9 8 7 9 10 11 12 12 12 12 11 11 11 13 13 13 14 15 18 20 22 20 19 19 18 18 18 18 18 19 18 18 19 19 19 20 20 22 24 27 31 33 33 33 37 40 42
10 10 9 9 10 10 9 9 9 9 8 7 7 7 6 5 5 4 4 4 4 4 4 4 4 5 4 3 4 4 4 5 7 8 10 13 13 10 8 7 7 9 9 10 12 12 13 13 12 11 12 12 13 14 13 14 18 22 23 22 21 21 21 20 19 18 18 18 19 19 20 20 20 21 21 21 23 25 27 29 30 31 33 35 39
10 10 10 10 10 10 9 9 9 8 8 8 7 7 6 5 5 4 4 4 4 4 4 4 4 4 4 4 3 4 4 5 6 7 10 13 13 10 8 7 7 8 9 10 11 12 13 14 13 13 13 12 13 13 11 15 22 25 23 23 23 23 23 23 22 21 21 21 21 21 20 20 20 21 21 22 22 23 24 26 27 28 31 34 35
10 11 11 10 10 10 9 9 9 8 9 8 7 7 6 5 5 4 4 4 4 4 4 4 4 4 4 4 3 4 4 5 6 7 9 12 14 13 10 9 8 9 9 10 11 11 13 14 14 14 13 13 14 12 9 14 23 23 20 21 23 24 24 23 23 24 25 24 23 22 21 20 20 21 21 21 21 21 22 23 24 25 28 32 34
11 11 11 10 10 10 10 10 10 9 9 8 7 7 6 5 5 4 4 4 4 4 4 4 4 4 4 4 3 4 4 4 5 6 8 11 14 15 14 12 11 11 10 11 12 12 13 13 13 14 14 13 13 12 10 15 20 19 17 20 23 24 24 24 24 24 24 25 24 23 22 22 21 21 22 22 22 22 22 23 24 25 26 30 33
11 11 11 10 10 10 10 10 10 10 9 8 7 6 6 5 5 5 4 4 4 4 4 4 4 4 4 3 4 4 4 5 6 7 9 10 13 16 16 14 14 13 12 12 13 13 13 13 13 13 13 13 13 13 13 16 17 16 17 19 21 22 23 23 24 24 24 25 25 24 24 24 24 24 24 24 24 25 25 25 25 26 26 28 31
12 11 11 11 11 11 11 11 10 9 8 8 7 7 6 6 6 5 5 5 5 4 4 4 4 4 4 4 5 5 6 6 7 9 10 11 13 15 17 16 15 15 14 13 13 13 13 13 12 12 12 12 13 13 15 16 16 16 17 18 20 21 22 23 24 24 25 25 26 26 26 26 27 27 27 27 27 27 27 27 27 28 28 29 29
12 12 11 11 11 11 11 10 10 9 8 8 7 7 6 6 6 5 5 5 5 4 4 4 4 5 5 6 7 7 7 8 9 10 11 13 13 15 16 16 16 15 14 13 13 12 13 13 12 12 12 12 13 14 15 16 16 17 17 18 19 21 22 23 24 25 25 26 27 27 27 27 28 29 29 30 30 30 29 29 29 29 29 30 30
12 12 12 12 11 11 10 10 9 9 8 8 7 7 6 6 6 5 5 5 5 4 4 4 5 6 7 8 8 9 9 10 10 10 11 12 13 14 15 15 15 15 14 13 12 12 13 13 13 13 13 13 13 14 15 16 16 17 18 19 20 21 22 23 24 25 26 26 27 27 27 28 28 29 30 30 30 31 31 31 30 29 29 30 30
13 12 12 12 11 10 10 10 10 9 8 8 7 7 6 6 6 5 5 5 5 4 5 5 6 7 8 9 10 10 11 11 11 11 12 12 13 13 14 14 15 14 14 13 13 12 13 14 14 14 14 14 14 14 15 16 16 17 18 19 19 20 21 23 23 24 26 26 27 28 28 28 29 29 29 30 30 30 31 32 32 31 30 31 31
12 12 12 11 11 11 11 10 10 9 9 8 8 7 7 6 6 6 5 5 5 5 6 6 7 8 9 10 10 10 11 12 11 11 12 12 13 13 14 14 15 15 14 14 13 12 13 13 14 14 15 14 14 15 16 17 17 17 18 18 18 19 20 22 23 24 25 26 27 27 28 28 29 29 29 30 30 30 30 32 32 32 31 32 32
12 12 12 12 11 11 11 10 10 10 9 8 8 7 7 7 6 6 6 6 6 6 7 7 8 8 9 10 10 9 10 12 12 12 12 13 13 13 14 14 15 15 15 15 14 13 13 13 14 14 15 15 15 15 16 17 17 17 17 17 17 18 19 20 21 23 24 25 26 27 28 28 29 29 30 30 30 30 29 30 31 31 31 32 32
12 12 12 12 12 12 11 10 10 9 9 8 8 7 7 7 6 6 6 6 6 7 7 8 9 8 8 10 10 9 9 11 12 12 13 13 14 14 15 15 16 16 16 17 15 14 14 14 14 15 15 15 15 15 15 16 16 16 16 16 17 17 18 19 21 22 23 24 26 27 27 28 28 29 30 30 29 29 29 29 29 30 30 31 32
13 13 12 12 12 11 11 10 10 9 9 9 8 8 8 7 7 6 7 7 7 7 7 8 9 9 9 10 10 10 9 10 12 13 13 14 15 15 16 16 17 17 18 18 18 16 15 16 15 15 16 17 16 16 16 16 16 16 16 16 17 17 18 19 21 22 23 24 25 26 27 28 29 29 29 30 29 28 28 28 28 29 30 31 32
13 13 12 12 12 11 11 11 10 10 10 9 9 9 8 7 7 7 7 7 7 7 7 8 9 10 10 10 10 11 11 11 12 12 13 14 15 15 16 16 16 17 18 19 18 17 16 17 16 16 16 17 17 17 18 18 18 18 18 18 17 18 18 19 21 22 23 24 24 25 25 26 27 28 29 29 29 29 28 27 28 28 29 30 31
13 13 13 13 12 11 11 11 10 10 10 10 10 9 8 7 7 7 7 7 7 8 9 9 10 11 11 11 12 12 12 13 13 13 14 14 15 16 16 16 16 17 18 19 19 18 17 18 17 17 17 17 17 18 18 18 19 19 20 19 19 18 19 20 20 22 23 24 24 24 25 25 26 27 27 28 28 29 28 28 28 29 30 30 31
14 14 13 12 12 11 11 11 11 11 10 10 9 8 7 6 7 7 7 8 9 9 10 11 12 12 13 13 14 15 15 15 15 15 15 16 16 16 17 17 16 17 18 19 19 19 18 18 18 17 18 18 18 18 18 19 19 20 20 20 20 20 19 20 21 21 22 23 24 24 24 24 25 26 26 26 27 28 28 29 29 30 31 32 32
14 14 13 12 12 11 11 11 11 11 10 9 8 7 6 6 7 7 8 9 10 11 12 13 14 14 15 15 16 17 17 17 17 17 17 18 18 18 18 18 17 17 18 19 20 20 19 19 19 18 18 18 18 18 19 19 19 20 20 21 21 20 20 20 20 21 21 22 23 23 23 24 24 26 27 26 27 28 28 29 30 31 32 33 34
14 14 13 13 12 12 11 11 11 10 9 8 7 6 6 6 7 8 9 9 10 11 12 14 16 17 17 17 18 19 19 18 19 19 19 19 19 20 20 19 18 17 18 19 19 20 20 20 19 19 19 19 18 19 19 19 19 20 21 21 21 21 21 20 20 21 21 22 22 23 23 23 23 25 26 27 27 28 28 29 30 31 32 34 35
14 13 13 12 12 12 11 11 10 9 8 7 7 7 7 8 8 9 10 11 11 11 11 12 14 16 17 19 20 21 20 20 19 19 19 19 20 21 21 20 19 18 18 17 18 19 19 19 19 19 19 19 19 19 19 19 20 20 21 22 22 22 21 21 21 21 22 22 23 23 23 23 23 24 25 26 26 27 28 29 30 31 32 33 35
14 13 13 13 12 12 11 11 10 8 8 7 7 8 8 9 10 11 12 13 13 13 13 13 13 14 15 17 20 21 21 20 20 19 19 20 20 21 22 21 21 20 18 17 18 19 19 19 19 19 19 19 19 19 19 20 20 20 21 22 22 22 22 21 21 22 23 23 23 23 23 23 23 24 25 26 26 27 28 28 29 30 31 32 34
14 14 14 13 13 12 11 10 9 8 8 8 8 8 9 10 11 13 13 14 14 14 14 14 14 13 13 15 18 20 20 20 19 18 18 19 20 21 22 22 22 21 20 19 19 20 20 19 19 19 19 19 19 20 20 20 20 21 21 22 22 22 22 21 21 21 22 23 23 23 23 23 23 24 25 25 26 27 27 28 29 31 31 32 33
14 14 13 13 12 11 10 9 8 8 8 9 9 10 10 11 12 13 14 15 15 15 15 14 13 13 14 16 17 18 19 19 17 17 17 18 19 20 22 22 22 22 22 21 20 21 21 20 20 19 20 20 20 20 20 21 21 21 22 22 23 22 22 22 22 22 22 23 24 23 23 23 23 24 24 25 25 27 27 28 29 30 32 33 33
13 13 12 12 11 10 9 8 8 8 9 9 10 11 12 12 13 14 14 14 14 14 15 14 13 13 15 16 18 19 20 19 18 17 17 17 17 18 20 21 21 22 22 22 21 21 21 21 20 20 20 20 20 20 21 21 22 22 22 22 23 23 22 22 22 22 23 23 24 24 23 23 24 24 24 24 25 26 27 28 29 30 31 32 33
13 12 12 11 10 9 9 8 8 9 10 10 11 12 13 13 13 14 14 15 15 15 15 15 15 15 16 17 18 20 21 21 20 20 19 19 18 18 19 19 20 21 22 22 22 22 22 22 21 21 21 20 20 20 21 21 22 23 23 23 23 23 23 22 22 22 23 24 24 24 24 24 24 25 25 25 25 26 27 28 29 30 31 32 33
12 12 11 10 9 9 8 9 9 10 11 11 12 12 13 13 13 14 15 15 16 17 17 17 17 16 17 18 19 21 22 22 22 22 22 21 21 20 19 19 20 20 21 22 22 22 23 23 22 22 21 21 21 21 21 22 22 23 24 23 23 23 23 23 22 23 24 24 24 24 25 25 25 25 25 25 26 27 27 28 29 30 31 32 33
12 11 10 10 9 9 9 10 10 11 11 12 12 12 13 13 14 15 16 17 17 19 20 20 19 19 19 19 20 21 23 23 23 23 23 23 23 22 21 20 20 20 21 22 22 23 24 24 23 22 22 22 22 22 22 22 23 24 24 25 24 24 24 23 23 23 24 25 25 25 25 25 26 26 26 26 26 27 28 29 29 30 31 32 33
11 11 10 10 10 9 10 10 11 11 12 12 12 12 13 14 15 16 17 18 19 20 21 21 22 22 21 21 21 22 23 23 24 24 24 24 24 23 22 21 21 21 21 22 22 23 24 25 24 24 23 22 22 23 23 23 23 24 25 25 25 25 24 24 24 24 25 26 26 25 26 26 26 27 26 26 27 28 29 29 30 31 32 33 34
11 11 10 10 10 10 10 11 11 11 11 12 12 13 14 15 16 17 19 20 21 21 22 22 23 23 23 23 23 23 24 24 25 25 25 25 25 24 23 23 22 22 22 22 22 23 24 24 25 25 24 23 23 23 23 23 23 24 24 25 26 26 25 24 25 25 25 26 27 27 27 27 27 27 27 27 28 29 29 30 31 32 33 34 35
11 11 11 11 11 10 10 11 11 11 12 12 13 14 15 16 18 18 19 21 21 22 23 23 24 24 25 25 24 25 25 25 26 26 26 26 26 25 24 24 24 23 23 23 23 23 23 24 24 25 24 24 23 23 23 23 23 23 24 25 25 26 25 25 26 26 26 26 27 27 28 28 28 28 28 28 29 29 30 30 31 32 33 34 36
12 11 11 11 11 10 10 11 11 12 13 13 14 15 16 17 18 19 20 21 22 23 24 24 25 25 26 26 26 26 26 27 27 27 27 27 26 26 26 25 25 25 24 24 23 23 23 23 24 24 24 24 23 23 23 23 23 23 24 24 25 25 25 26 26 26 26 27 27 28 29 29 29 29 29 29 30 30 30 31 31 32 33 34 36
12 11 11 11 10 10 10 11 12 13 13 14 15 16 17 17 18 19 20 22 23 24 25 25 25 26 26 26 26 26 27 27 28 28 28 28 27 27 27 26 26 26 26 25 24 24 23 23 24 24 24 24 24 23 23 23 23 23 23 23 24 25 25 26 26 26 26 27 28 28 29 30 30 30 30 30 31 31 31 31 32 33 33 34 35
12 11 11 11 10 10 11 12 13 13 14 15 16 16 17 18 19 20 21 23 24 24 25 25 26 26 26 26 26 26 26 27 27 27 27 28 27 27 27 27 27 27 27 26 25 24 24 24 24 24 24 24 24 24 24 23 23 23 23 23 24 25 25 25 26 26 27 27 28 28 29 30 30 30 31 31 31 32 32 32 33 33 34 35 35
12 11 11 11 11 11 12 13 13 13 14 15 16 17 18 19 20 21 22 23 24 24 24 25 25 26 26 25 26 26 26 26 27 27 27 26 26 26 27 27 27 27 27 27 26 26 25 25 24 24 24 24 24 24 24 24 23 23 24 24 24 24 25 25 26 26 27 28 28 29 29 30 31 31 32 32 32 32 32 32 33 34 34 35 36
12 11 11 11 11 12 12 13 13 13 14 15 16 18 19 20 21 22 22 23 24 24 24 24 25 25 25 25 25 25 26 26 26 26 26 26 25 25 26 27 27 28 27 27 27 26 26 25 25 25 25 25 25 25 24 24 24 24 24 24 25 25 25 25 26 26 26 27 28 29 30 31 31 32 32 32 32 32 33 33 33 34 35 35 36
Wind_Direction
160 160 160 159 159 159 159 159 159 159 159 158 158 159 166 172 177 210 273 305 305 309 311 309 310 310 308 308 307 307 308 310 314 316 317 319 321 323 323 321 318 317 316 316 318 319 320 318 316 316 316 314 313 313 313 313 311 311 312 310 309 308 305 302 300 303 308 312 313 314 318 321 323 325 324 322 323 323 321 322 322 319 317 316 314
162 162 162 162 162 163 163 163 162 161 160 159 160 162 160 157 244 300 315 316 311 311 311 310 314 314 310 309 308 308 310 313 315 317 318 320 324 325 325 323 323 324 323 324 325 324 323 320 317 320 320 317 317 316 316 317 314 315 316 312 311 310 307 305 305 307 309 313 316 317 320 324 324 327 329 327 327 329 327 327 326 323 321 320 317
164 165 165 164 164 164 163 162 161 158 158 158 157 156 89 331 307 318 320 313 310 309 309 312 313 311 307 307 307 307 308 310 313 316 321 326 329 328 327 326 326 325 324 324 324 321 320 318 317 320 319 317 317 317 319 319 316 317 317 314 312 312 311 310 310 310 311 314 319 321 323 326 327 329 331 329 330 332 332 331 330 328 328 326 322
166 166 167 166 165 164 161 159 159 154 153 157 157 315 326 319 311 313 308 304 303 302 304 308 306 304 304 304 306 306 308 313 319 323 328 331 331 328 326 325 324 323 322 320 319 317 316 316 318 319 318 318 318 319 320 319 317 318 318 316 316 316 315 315 314 314 315 316 320 324 325 327 329 332 332 330 330 331 331 331 330 330 332 331 327
168 167 166 166 165 163 161 159 160 157 158 180 280 297 305 308 301 299 297 296 297 298 299 302 301 302 304 306 310 312 315 319 322 326 330 330 328 323 321 321 321 320 319 318 316 316 317 317 319 320 318 320 321 321 320 318 317 319 320 320 320 318 318 319 317 318 319 319 321 324 326 327 330 334 335 331 329 329 330 330 330 331 332 330 330
169 168 166 167 166 165 166 169 172 180 204 247 278 287 291 292 290 291 293 292 295 296 298 303 306 307 310 315 318 319 318 319 320 323 325 323 320 317 315 318 320 318 317 318 318 318 320 321 322 322 321 322 323 322 320 318 320 323 322 323 322 320 320 321 321 322 322 321 322 323 325 329 331 332 337 335 331 331 331 327 326 331 331 329 330
170 170 169 170 172 172 175 184 195 221 250 264 275 282 284 286 288 289 292 295 298 302 307 312 314 315 318 320 320 318 313 311 313 315 316 317 314 312 313 319 323 320 321 323 323 323 325 327 327 325 323 324 324 323 321 320 323 327 324 323 323 320 321 323 324 325 324 322 324 324 325 331 334 331 334 335 330 333 336 329 324 328 332 330 330
173 174 174 176 181 183 190 203 220 244 263 270 278 285 285 289 292 293 296 300 303 307 312 314 315 315 315 314 313 310 304 302 306 308 311 312 308 309 319 329 332 328 329 330 328 328 331 331 330 327 325 325 324 323 322 322 325 328 324 321 322 321 323 326 327 327 325 323 325 327 328 331 334 331 332 336 331 331 338 335 327 327 330 330 330
176 178 180 183 188 195 205 224 247 263 275 281 285 290 290 293 293 292 296 298 301 304 304 304 306 304 303 303 301 298 296 298 301 303 305 306 307 319 335 341 339 335 333 333 331 332 334 332 329 326 324 325 323 322 323 323 324 325 322 321 323 324 327 330 330 329 326 326 329 332 331 333 336 335 334 338 336 331 332 333 329 328 328 326 329
180 182 185 189 195 209 227 248 265 275 281 285 288 288 289 289 288 288 290 290 291 293 291 291 292 291 292 293 293 295 295 296 301 305 311 317 320 331 346 344 337 335 333 333 333 333 333 330 327 325 324 324 324 323 323 322 322 322 322 325 328 331 331 332 332 331 329 330 333 334 333 334 337 337 334 334 333 329 329 331 330 329 328 326 326
183 186 190 197 207 224 247 261 271 277 279 281 282 283 283 282 283 284 282 282 281 281 284 287 289 294 298 297 300 301 292 298 320 323 319 322 325 332 346 343 333 332 332 332 334 335 332 328 325 323 323 323 322 322 321 321 321 320 322 329 333 334 335 334 335 334 331 330 331 333 332 331 333 335 333 330 329 327 328 329 328 328 327 322 318
186 191 196 206 223 239 254 263 269 273 273 276 277 277 276 275 276 275 273 276 278 281 289 295 300 307 309 304 306 303 284 293 28 353 315 313 321 332 342 341 332 330 331 332 334 338 334 328 325 323 322 322 321 322 321 319 320 321 324 331 334 337 340 340 336 331 327 326 327 330 332 329 329 333 333 330 327 325 324 325 325 322 316 311 311
189 197 203 215 230 244 254 259 264 267 268 271 270 269 268 266 267 271 273 278 285 291 299 301 305 308 306 303 301 286 274 268 153 119 316 309 314 327 335 336 329 327 330 332 333 337 335 330 326 323 322 323 324 324 322 320 320 321 323 330 337 343 344 340 330 323 321 322 323 326 331 329 328 331 332 328 324 322 322 321 317 310 306 306 307
195 203 211 222 235 245 253 256 260 262 263 264 262 261 262 263 264 269 276 283 289 295 299 298 301 302 298 302 296 278 254 246 203 154 224 293 300 316 329 330 326 325 329 330 329 333 333 329 327 324 321 322 325 326 323 318 316 317 323 335 344 345 339 331 324 321 322 323 322 326 332 330 326 324 324 322 318 317 316 312 306 305 305 305 304
203 211 218 230 240 246 253 256 257 258 259 258 257 257 259 261 264 269 274 281 285 289 293 292 295 297 293 294 286 273 250 240 226 195 222 273 290 309 325 326 323 324 325 324 325 328 330 329 329 326 322 321 325 325 319 316 317 321 332 342 342 337 330 324 325 327 329 328 328 327 326 322 317 315 315 314 312 310 306 302 302 303 301 299 299
209 218 227 238 246 250 255 257 255 255 255 255 258 259 261 263 263 266 270 275 279 284 287 285 286 289 291 282 270 263 252 244 235 223 246 276 291 309 324 327 323 321 321 321 323 325 328 330 328 325 323 322 324 324 320 320 323 325 330 336 333 329 326 326 329 332 329 326 324 319 315 313 309 306 305 304 302 299 296 296 298 299 297 298 301
215 224 234 242 248 252 253 254 253 252 254 257 261 261 262 263 262 261 264 266 271 275 276 279 282 283 283 275 266 259 250 249 243 238 258 282 295 308 324 328 322 320 321 321 321 323 325 326 326 326 326 324 325 324 322 322 320 318 323 330 328 325 326 328 329 328 323 321 321 318 316 315 310 305 301 298 297 297 297 300 304 305 305 306 308
220 230 238 243 248 250 250 250 250 252 255 258 260 261 259 259 257 253 253 257 262 267 269 276 280 281 283 277 271 266 256 255 254 251 264 284 298 312 325 329 324 323 324 321 319 321 321 320 324 326 324 324 325 323 324 325 319 316 322 328 325 323 326 328 327 324 321 322 325 324 322 319 314 311 309 306 305 305 306 310 312 312 311 310 310
224 233 240 244 247 248 249 251 251 254 257 256 255 256 254 252 251 247 247 252 256 260 265 269 273 278 281 277 272 271 267 264 264 262 270 287 301 315 326 330 327 324 322 317 314 315 316 316 321 322 321 323 321 319 333 334 318 314 321 324 320 321 325 327 328 327 326 328 327 325 324 320 317 314 313 311 311 310 311 312 312 311 309 308 309
229 236 242 245 248 249 249 251 251 250 250 249 247 247 246 245 245 243 243 245 250 256 259 262 267 270 272 272 270 267 264 266 272 274 278 288 300 313 322 325 324 320 316 310 307 309 312 314 317 318 319 322 317 316 334 326 310 311 321 319 314 319 325 328 330 328 327 327 326 326 325 323 320 318 316 315 314 313 314 313 311 311 309 307 309
233 238 243 244 245 247 245 245 245 243 241 241 240 238 238 239 239 239 241 241 245 254 258 259 261 261 260 265 268 267 267 269 278 284 285 287 296 306 314 318 318 317 316 312 309 310 311 312 315 316 317 319 315 310 308 304 305 314 321 313 312 319 323 324 325 323 322 323 324 325 326 324 323 322 320 320 320 319 319 317 313 312 310 309 310
233 238 242 242 239 240 239 238 238 237 235 233 232 231 230 230 232 232 234 237 240 247 252 255 257 258 262 270 273 276 280 284 287 290 290 287 290 297 305 312 315 316 317 317 314 313 312 312 315 316 315 314 311 305 301 303 309 316 314 310 313 317 317 317 319 319 320 322 323 326 328 326 325 325 324 323 324 323 322 320 316 314 313 311 310
233 237 239 237 235 233 233 233 233 232 231 227 225 226 225 223 227 229 231 237 240 240 244 249 256 264 273 276 279 284 286 288 290 290 290 291 291 294 301 309 313 315 317 317 315 313 312 313 314 314 312 310 310 308 307 308 311 311 309 310 312 312 313 315 317 319 321 322 324 327 329 327 326 327 327 326 326 325 324 322 319 317 314 312 309
232 234 233 232 231 228 228 229 228 226 226 224 222 222 222 222 226 229 232 238 239 236 242 248 257 270 277 277 281 285 286 288 290 289 289 291 292 294 300 305 308 311 313 313 314 313 312 313 313 311 311 311 312 310 308 307 308 309 309 310 311 312 314 316 318 320 321 323 325 327 329 328 328 328 328 327 326 326 324 322 320 318 315 312 310
229 228 228 227 226 225 223 223 223 222 222 222 220 220 220 220 225 228 228 232 234 237 245 253 262 272 278 282 286 289 289 289 290 290 288 288 290 292 296 299 301 305 308 309 312 313 311 311 312 311 312 312 310 306 304 305 308 310 310 311 313 314 315 316 318 320 321 323 325 327 328 328 327 326 326 325 325 325 323 322 321 320 317 315 313
225 223 224 223 222 221 219 218 218 217 216 216 217 218 220 221 223 226 226 228 233 238 246 257 267 274 278 282 285 287 290 290 290 291 289 289 290 291 293 296 298 302 305 308 311 311 310 310 309 309 309 308 307 306 306 308 311 312 312 312 313 314 315 317 318 319 321 324 326 327 327 326 325 325 324 324 325 326 324 324 324 324 323 321 320
220 218 219 219 217 215 214 213 212 212 212 212 212 214 219 220 219 221 225 232 240 248 257 263 269 273 277 280 281 283 286 287 289 291 291 291 291 292 294 296 297 299 302 304 307 308 306 304 304 305 306 308 310 311 311 312 312 312 310 310 312 314 315 317 319 320 321 323 324 325 325 324 324 325 325 324 326 328 327 326 326 326 326 325 325
214 214 214 213 211 209 208 208 207 207 208 209 210 211 212 213 212 215 224 235 246 257 266 270 273 275 276 280 282 281 282 286 290 292 290 290 290 290 291 292 293 295 299 301 304 307 305 303 305 306 307 309 311 311 310 309 309 308 308 309 311 314 315 317 318 319 320 321 322 323 324 324 324 325 325 326 328 330 330 329 328 328 329 328 327
212 212 210 208 206 204 204 203 203 204 205 207 209 208 206 207 212 219 231 243 255 264 272 276 281 282 282 285 285 281 277 282 289 292 292 291 291 290 291 293 295 299 302 304 307 311 310 309 309 309 308 309 311 311 309 307 306 306 308 310 313 315 316 317 318 319 321 321 322 324 324 324 325 326 326 328 331 333 333 333 331 331 331 330 329
211 208 206 204 202 201 200 200 201 203 204 205 205 204 205 208 216 227 239 248 257 266 274 281 286 290 291 290 289 286 283 282 286 290 291 291 291 292 293 296 300 303 304 306 309 312 313 311 312 312 311 312 313 313 312 311 310 309 310 314 317 318 319 320 320 321 322 322 323 325 325 325 326 328 329 330 333 336 336 336 335 335 334 333 332
207 204 202 200 197 197 197 197 199 202 202 202 202 204 208 214 223 237 250 260 270 277 282 286 289 292 293 290 287 288 289 288 288 289 290 290 290 291 292 294 297 300 302 303 306 310 311 310 312 314 313 312 313 314 313 313 314 314 314 316 319 320 321 322 322 322 322 322 324 325 325 326 327 329 330 332 334 336 338 339 339 338 338 337 336
201 199 197 195 193 193 194 195 199 200 199 198 201 206 214 224 234 246 259 272 282 288 292 295 296 297 298 298 297 297 298 298 297 297 296 295 294 291 290 291 293 296 299 301 304 308 309 309 312 314 313 312 312 312 312 313 314 314 315 316 318 321 322 322 322 323 322 323 324 325 326 327 328 329 331 333 335 337 339 341 342 341 340 340 339
196 194 193 191 190 191 191 193 197 198 198 200 205 214 227 240 254 267 276 284 289 292 296 299 300 300 302 303 303 303 303 303 304 303 301 300 298 295 293 292 293 296 298 299 302 304 305 307 310 312 312 311 311 310 310 311 312 312 313 315 317 319 321 321 322 322 322 322 324 326 327 328 329 329 331 334 336 338 340 342 343 343 342 342 341
193 191 189 188 189 190 190 192 195 196 200 205 213 224 239 253 269 281 289 296 300 302 304 304 303 303 305 305 303 303 303 304 304 304 303 302 300 298 296 295 296 297 297 297 300 302 303 305 308 310 309 308 309 308 308 308 309 310 311 312 314 316 318 319 320 320 321 323 324 326 327 329 329 329 331 334 337 338 340 343 344 344 344 343 342
191 190 188 187 188 189 189 192 196 198 205 214 224 237 253 263 273 281 286 292 294 295 298 300 300 302 304 303 300 299 300 302 302 302 302 301 299 297 296 296 296 295 292 292 295 297 299 302 304 305 305 305 306 306 306 306 307 308 309 311 313 314 316 318 319 319 320 322 324 326 328 329 330 330 331 334 337 338 340 343 344 345 345 344 342
189 189 187 186 187 189 190 194 199 205 215 227 238 251 264 274 280 285 288 290 290 288 288 288 290 293 296 295 294 295 297 300 301 301 301 299 297 295 295 295 294 292 290 290 291 291 293 296 298 300 301 302 303 303 303 304 305 307 308 309 311 313 315 317 318 319 320 321 323 326 328 329 330 330 330 333 337 339 340 342 343 344 345 344 342
187 187 186 186 188 191 193 197 203 212 223 237 249 260 270 278 282 285 288 291 292 294 294 290 288 288 285 284 288 292 296 298 300 301 299 297 294 294 294 294 294 293 293 293 291 290 292 294 296 296 298 299 301 302 302 303 304 305 306 307 309 311 314 316 317 318 319 320 322 325 326 328 330 330 330 333 336 338 339 341 342 342 344 344 342
187 187 186 187 189 192 196 202 210 219 232 244 254 265 272 278 282 286 289 292 294 296 296 295 294 291 284 279 283 289 292 295 298 298 296 294 293 293 293 293 293 294 295 295 294 293 294 294 294 295 297 299 300 301 301 302 303 304 305 306 307 309 312 314 316 317 317 318 320 323 325 327 329 329 330 332 335 336 337 339 340 341 342 342 342
187 187 187 189 192 196 203 211 219 229 242 253 262 271 276 279 283 287 290 292 294 295 295 296 298 296 291 288 288 291 293 296 298 296 293 291 290 289 290 291 291 291 292 293 292 292 293 293 294 294 296 298 299 300 300 300 302 303 304 305 306 308 311 313 314 315 315 316 318 321 324 326 327 328 329 331 333 333 334 336 339 339 339 339 339
187 189 190 193 198 204 212 222 232 243 254 263 271 277 281 283 286 288 290 292 294 296 297 299 301 299 296 295 296 296 297 300 302 300 297 294 292 289 288 288 288 288 288 288 288 289 290 292 293 294 295 297 298 298 298 299 300 302 303 304 305 307 310 312 313 314 314 314 316 319 322 324 325 326 328 330 331 331 332 334 336 337 336 336 336
189 192 196 200 207 215 223 233 245 256 264 271 276 280 284 287 289 291 292 295 297 297 298 300 301 301 298 298 299 298 299 303 304 304 303 301 299 296 293 291 289 287 286 286 287 287 288 290 292 293 294 295 296 295 296 298 299 300 301 303 304 306 308 310 312 312 312 312 314 317 319 321 323 324 326 328 329 328 329 331 332 333 334 334 334
193 197 203 209 217 225 233 243 253 261 268 274 278 281 285 288 290 292 294 296 298 298 299 300 301 300 298 298 298 297 298 301 302 302 302 302 301 300 299 296 292 289 287 287 287 288 288 289 290 292 293 294 294 295 295 296 298 299 300 302 303 304 307 309 310 310 310 310 313 315 317 319 321 322 324 326 326 326 327 328 330 331 331 332 332
199 204 210 219 227 233 240 249 258 265 271 275 279 283 286 288 290 293 295 297 298 299 300 301 301 299 298 297 296 295 296 298 298 298 298 298 298 299 299 297 295 292 289 289 288 288 288 289 289 290 292 292 293 294 295 296 297 298 299 300 302 303 306 308 308 308 308 308 311 314 315 317 318 320 322 324 324 324 324 326 328 329 329 329 330
206 213 220 227 234 241 248 255 262 268 272 275 279 283 286 289 292 294 296 298 299 300 300 301 301 300 299 298 296 294 294 295 294 294 294 294 294 295 296 295 294 292 290 290 289 288 287 288 289 289 290 291 292 293 294 295 296 296 297 299 300 301 304 306 306 306 306 307 310 312 313 314 316 318 320 322 323 322 323 324 326 326 327 328 328
214 221 227 234 241 247 252 257 261 265 268 274 280 284 288 292 295 296 298 299 300 300 300 301 301 300 300 299 297 295 294 293 292 292 292 292 292 293 293 292 292 291 290 290 289 288 287 288 289 289 290 290 291 291 292 293 294 295 295 297 298 300 302 303 303 303 305 306 308 309 311 312 314 316 318 320 321 320 321 323 324 324 325 326 326
220 226 233 239 245 248 252 256 262 268 273 279 285 288 291 294 295 297 298 299 300 301 301 302 301 301 300 300 298 296 295 294 292 291 291 291 291 291 291 290 289 289 289 288 288 287 288 288 288 289 290 290 290 290 291 292 293 293 293 294 296 298 300 300 300 301 303 304 305 307 308 309 312 314 315 317 318 318 319 320 322 322 323 324 324
226 231 237 241 244 248 254 259 266 274 279 284 289 291 293 295 296 298 300 301 301 302 302 302 303 302 301 300 299 298 296 294 293 291 291 290 290 289 289 288 288 287 287 286 286 286 286 287 287 288 289 289 290 290 290 291 291 292 292 293 294 296 297 297 298 300 302 302 303 304 305 307 309 311 312 314 315 316 317 318 319 321 321 322 323
230 233 237 241 245 250 257 264 270 277 283 287 290 292 295 297 299 301 303 303 303 304 304 304 304 304 304 303 302 301 299 296 294 293 291 290 289 289 288 287 286 285 284 284 284 284 284 284 285 286 287 288 289 289 289 290 290 290 291 291 292 293 295 296 297 299 300 301 301 302 303 305 306 308 310 312 313 314 315 317 318 319 320 320 321
231 233 237 243 249 255 262 268 274 280 285 287 290 293 297 301 303 305 306 306 305 306 307 307 306 306 307 306 306 304 302 300 299 298 295 293 291 289 287 286 285 284 284 283 283 283 282 283 284 285 286 287 288 288 289 289 289 290 291 291 291 291 293 294 296 297 298 298 300 301 301 303 304 307 309 310 311 312 314 315 316 317 318 318 320
232 236 242 248 255 261 266 270 276 281 285 287 292 298 302 305 307 308 307 307 307 308 308 308 308 309 309 309 308 307 306 305 304 303 301 299 296 293 289 286 284 283 282 282 282 282 281 282 283 284 285 286 287 287 288 288 289 290 290 289 290 291 292 293 294 295 296 297 298 299 300 302 304 306 307 309 310 311 313 314 315 315 316 317 319
235 241 247 253 258 262 267 272 278 282 286 291 297 303 305 307 308 308 308 308 309 310 309 309 310 311 311 311 310 310 309 308 307 306 305 303 301 298 293 289 286 283 281 281 281 281 281 282 282 283 284 284 285 286 287 288 288 289 289 289 290 292 292 292 293 294 295 296 297 298 300 301 303 304 306 308 310 311 312 313 313 314 315 316 317